New Century, KS

1:30 PM CST on December 08, 2016 (GMT -0600)
New Century Aircenter

Weather History for KIXD - July, 2013

Change the Weather History Date:

Saturday, July 27, 2013

  Actual Average Record
Temperature  
Mean Temperature 66 °F -  
Max Temperature 80 °F 87 °F 105 °F (2011)
Min Temperature 55 °F 66 °F 55 °F (2005)
Cooling Degree Days 2    
Growing Degree Days 16 (Base 50)    
Moisture  
Dew Point 52 °F    
Average Humidity 64    
Maximum Humidity 90    
Minimum Humidity 32    
Precipitation  
Precipitation 0.00 in - - ()
Sea Level Pressure  
Sea Level Pressure 30.05 in    
Wind  
Wind Speed 7 mph (NW)    
Max Wind Speed 13 mph    
Max Gust Speed 17 mph    
Visibility 10 miles    
Events      
Averages and records for this station are not official NWS values.
T = Trace of Precipitation, MM = Missing Value Source: NWS Daily Summary

Daily Weather History Graph

Daily Weather History Graph

Search for Another Location

Airport or City:

Trip Planner

Search our weather history database for the weather conditions in past years. The results will help you decide how hot, cold, wet, or windy it might be!

Date:

Astronomy

Jul. 27, 2013 Rise Set
Actual Time 6:16 AM CDT 8:35 PM CDT
Civil Twilight 5:46 AM CDT 9:05 PM CDT
Nautical Twilight 5:09 AM CDT 9:41 PM CDT
Astronomical Twilight 4:28 AM CDT 10:22 PM CDT
Moon 11:27 PM CDT (7/27) 11:53 AM CDT (7/27)
Length of Visible Light 15h 18m
Length of Day
14h 18m
Waning Gibbous, 70% of the Moon is Illuminated
Jul 27
Waning Gibbous
Jul 29
Last Quarter
Aug 6
New
Aug 14
First Quarter
Aug 20
Full

Hourly Weather History & Observations

Time (CDT) Temp. Dew Point Humidity Pressure Visibility Wind Dir Wind Speed Gust Speed Precip Events Conditions
12:53 AM 64.9 °F 53.1 °F 65% 30.07 in 10.0 mi North 9.2 mph - N/A   Clear
1:53 AM 61.0 °F 52.0 °F 72% 30.07 in 10.0 mi NNE 4.6 mph - N/A   Clear
2:53 AM 57.9 °F 52.0 °F 81% 30.07 in 10.0 mi NNW 4.6 mph - N/A   Clear
3:53 AM 57.0 °F 52.0 °F 83% 30.06 in 10.0 mi NNW 5.8 mph - N/A   Clear
4:53 AM 57.0 °F 53.1 °F 87% 30.05 in 10.0 mi NW 4.6 mph - N/A   Clear
5:53 AM 55.0 °F 52.0 °F 89% 30.06 in 10.0 mi NNW 3.5 mph - N/A   Clear
6:53 AM 55.9 °F 53.1 °F 90% 30.08 in 10.0 mi North 3.5 mph - N/A   Clear
7:53 AM 63.0 °F 54.0 °F 72% 30.10 in 10.0 mi North 6.9 mph - N/A   Clear
8:53 AM 66.0 °F 53.1 °F 63% 30.11 in 10.0 mi North 8.1 mph - N/A   Clear
9:53 AM 69.1 °F 53.1 °F 57% 30.09 in 10.0 mi NNW 6.9 mph - N/A   Clear
10:53 AM 71.1 °F 48.0 °F 44% 30.10 in 10.0 mi North 11.5 mph - N/A   Mostly Cloudy
11:53 AM 70.0 °F 48.0 °F 46% 30.09 in 10.0 mi NNW 10.4 mph - N/A   Mostly Cloudy
12:53 PM 73.9 °F 48.0 °F 40% 30.06 in 10.0 mi North 8.1 mph - N/A   Partly Cloudy
1:53 PM 75.9 °F 50.0 °F 40% 30.05 in 10.0 mi Variable 3.5 mph - N/A   Clear
2:53 PM 78.1 °F 48.0 °F 35% 30.03 in 10.0 mi NNW 8.1 mph 16.1 mph N/A   Clear
3:53 PM 78.1 °F 46.0 °F 32% 30.02 in 10.0 mi NW 9.2 mph 17.3 mph N/A   Clear
4:53 PM 77.0 °F 46.9 °F 34% 30.01 in 10.0 mi NW 12.7 mph - N/A   Mostly Cloudy
5:53 PM 73.0 °F 53.1 °F 49% 30.01 in 10.0 mi West 11.5 mph - N/A   Overcast
6:53 PM 71.1 °F 57.0 °F 61% 30.00 in 10.0 mi West 9.2 mph - N/A   Scattered Clouds
7:53 PM 68.0 °F 57.0 °F 68% 29.99 in 10.0 mi WNW 6.9 mph - N/A   Clear
8:53 PM 64.9 °F 57.0 °F 75% 30.00 in 10.0 mi West 4.6 mph - N/A   Clear
9:53 PM 63.0 °F 57.0 °F 81% 30.02 in 10.0 mi WNW 5.8 mph - N/A   Clear
10:53 PM 62.1 °F 55.9 °F 80% 30.03 in 10.0 mi West 4.6 mph - N/A   Clear
11:53 PM 60.1 °F 55.9 °F 86% 30.03 in 10.0 mi NW 3.5 mph - N/A   Clear